| time (UTC) | temp F | wind direction | speed MPH | gust MPH | rain 1hr in | rain 24hr in | rain mn in | humidity % | barometer mb |
| 20260904075621 | 57 | 174 | 3.0 | 5.0 | 0.00 | 0.00 | 0.00 | 1 | 1011.5 |
| 20260904074617 | 57 | 0.0 | 3.0 | 0.00 | 0.00 | 0.00 | 1 | 1011.6 | |
| 20260904073633 | 57 | 0.0 | 1.0 | 0.00 | 0.00 | 0.00 | 1 | 1011.6 | |
| 20260904072629 | 57 | 229 | 2.0 | 2.0 | 0.00 | 0.00 | 0.00 | 1 | 1011.7 |
| 20260904071626 | 58 | 3 | 2.0 | 2.0 | 0.00 | 0.00 | 0.00 | 1 | 1011.7 |
| 20260904070641 | 60 | 189 | 2.0 | 3.0 | 0.00 | 0.00 | 0.00 | 1 | 1011.6 |
| 20260904065617 | 60 | 175 | 3.0 | 5.0 | 0.00 | 0.00 | 0.00 | 1 | 1011.5 |
| 20260904064634 | 60 | 187 | 4.0 | 6.0 | 0.00 | 0.00 | 0.00 | 1 | 1011.5 |
| 20260904063630 | 60 | 167 | 7.0 | 13.0 | 0.00 | 0.00 | 0.00 | 1 | 1011.2 |
| 20260904062626 | 60 | 175 | 7.0 | 9.0 | 0.00 | 0.00 | 0.00 | 1 | 1011.3 |
| 20260904061622 | 60 | 179 | 5.0 | 6.0 | 0.00 | 0.00 | 0.00 | 1 | 1011.4 |
| 20260904060619 | 59 | 317 | 2.0 | 3.0 | 0.00 | 0.01 | 0.00 | 1 | 1011.4 |
| 20260904055635 | 59 | 295 | 2.0 | 2.0 | 0.00 | 0.01 | 0.00 | 1 | 1011.2 |
| 20260904054631 | 59 | 340 | 2.0 | 2.0 | 0.00 | 0.01 | 0.00 | 1 | 1011.2 |
| 20260904053627 | 60 | 189 | 2.0 | 3.0 | 0.00 | 0.01 | 0.00 | 1 | 1011.1 |
| 20260904052623 | 60 | 245 | 1.0 | 2.0 | 0.00 | 0.01 | 0.00 | 1 | 1011.1 |
| 20260904051619 | 59 | 193 | 2.0 | 3.0 | 0.00 | 0.01 | 0.00 | 1 | 1011.1 |
| 20260904050636 | 60 | 178 | 1.0 | 2.0 | 0.00 | 0.01 | 0.00 | 1 | 1011.0 |
| 20260904045652 | 60 | 182 | 1.0 | 4.0 | 0.00 | 0.01 | 0.00 | 1 | 1011.1 |
| 20260904044628 | 61 | 153 | 3.0 | 4.0 | 0.00 | 0.01 | 0.00 | 1 | 1010.9 |
| 20260904043624 | 62 | 183 | 3.0 | 4.0 | 0.00 | 0.01 | 0.00 | 1 | 1011.0 |
| 20260904042640 | 63 | 167 | 2.0 | 3.0 | 0.00 | 0.01 | 0.00 | 1 | 1011.0 |
| 20260904041617 | 64 | 172 | 3.0 | 6.0 | 0.00 | 0.02 | 0.00 | 1 | 1010.8 |
| 20260904040633 | 63 | 144 | 1.0 | 3.0 | 0.00 | 0.02 | 0.00 | 1 | 1010.7 |
| 20260904035629 | 64 | 162 | 3.0 | 8.0 | 0.00 | 0.02 | 0.00 | 1 | 1010.5 |
| 20260904034625 | 63 | 161 | 5.0 | 8.0 | 0.00 | 0.02 | 0.00 | 1 | 1010.4 |
| 20260904033641 | 64 | 181 | 4.0 | 5.0 | 0.00 | 0.02 | 0.00 | 1 | 1010.6 |
| 20260904032617 | 64 | 188 | 5.0 | 6.0 | 0.00 | 0.02 | 0.00 | 1 | 1010.4 |
| 20260904031633 | 63 | 166 | 2.0 | 3.0 | 0.00 | 0.02 | 0.00 | 1 | 1010.4 |
| 20260904030629 | 64 | 177 | 2.0 | 3.0 | 0.00 | 0.02 | 0.00 | 1 | 1010.2 |
| 20260904025625 | 65 | 183 | 3.0 | 4.0 | 0.00 | 0.02 | 0.00 | 1 | 1010.2 |
| 20260904024621 | 64 | 186 | 1.0 | 2.0 | 0.00 | 0.02 | 0.00 | 1 | 1010.1 |
| 20260904023618 | 64 | 177 | 2.0 | 3.0 | 0.00 | 0.02 | 0.00 | 1 | 1009.9 |
| 20260904022654 | 64 | 189 | 3.0 | 4.0 | 0.00 | 0.02 | 0.00 | 1 | 1009.8 |
| 20260904021629 | 64 | 164 | 1.0 | 2.0 | 0.00 | 0.02 | 0.00 | 1 | 1010.0 |
| 20260904020625 | 64 | 186 | 2.0 | 3.0 | 0.00 | 0.02 | 0.00 | 1 | 1010.0 |
| 20260904015621 | 65 | 118 | 1.0 | 2.0 | 0.00 | 0.02 | 0.00 | 1 | 1010.1 |
| 20260904014617 | 65 | 108 | 1.0 | 3.0 | 0.00 | 0.02 | 0.00 | 1 | 1010.1 |
| 20260904013653 | 65 | 178 | 3.0 | 4.0 | 0.00 | 0.02 | 0.00 | 1 | 1010.3 |
| 20260904012630 | 65 | 181 | 1.0 | 3.0 | 0.00 | 0.02 | 0.00 | 1 | 1010.3 |
| 20260904011625 | 65 | 204 | 3.0 | 4.0 | 0.00 | 0.02 | 0.00 | 1 | 1010.3 |
| 20260904010622 | 65 | 207 | 4.0 | 6.0 | 0.00 | 0.02 | 0.00 | 1 | 1010.2 |
| 20260904005618 | 66 | 180 | 3.0 | 4.0 | 0.00 | 0.02 | 0.00 | 1 | 1010.2 |
| 20260904004634 | 66 | 222 | 5.0 | 5.0 | 0.00 | 0.02 | 0.00 | 1 | 1010.2 |
| 20260904003630 | 66 | 169 | 4.0 | 4.0 | 0.00 | 0.02 | 0.00 | 1 | 1010.4 |
| 20260904002627 | 66 | 170 | 4.0 | 5.0 | 0.00 | 0.02 | 0.00 | 1 | 1010.4 |
| 20260904001622 | 66 | 198 | 4.0 | 4.0 | 0.00 | 0.02 | 0.00 | 1 | 1010.7 |
| 20260904000619 | 66 | 174 | 6.0 | 8.0 | 0.00 | 0.02 | 0.00 | 1 | 1010.7 |
| 20260903235655 | 66 | 203 | 3.0 | 4.0 | 0.00 | 0.02 | 0.00 | 1 | 1010.8 |
| 20260903234651 | 66 | 192 | 3.0 | 4.0 | 0.00 | 0.02 | 0.00 | 1 | 1010.7 |
| 20260903233626 | 66 | 194 | 5.0 | 9.0 | 0.00 | 0.02 | 0.00 | 1 | 1010.7 |
| 20260903232623 | 67 | 185 | 6.0 | 9.0 | 0.00 | 0.02 | 0.00 | 1 | 1010.7 |
| 20260903231639 | 68 | 214 | 4.0 | 5.0 | 0.00 | 0.02 | 0.00 | 1 | 1010.9 |
| 20260903230635 | 68 | 184 | 5.0 | 8.0 | 0.00 | 0.02 | 0.00 | 1 | 1010.9 |
| 20260903225631 | 68 | 194 | 3.0 | 5.0 | 0.00 | 0.02 | 0.00 | 1 | 1011.0 |
| 20260903224707 | 68 | 172 | 3.0 | 5.0 | 0.00 | 0.02 | 0.00 | 1 | 1011.2 |
| 20260903223623 | 68 | 200 | 4.0 | 8.0 | 0.00 | 0.02 | 0.00 | 1 | 1011.2 |
| 20260903222620 | 67 | 230 | 2.0 | 4.0 | 0.00 | 0.02 | 0.00 | 1 | 1011.4 |
| 20260903221656 | 66 | 176 | 6.0 | 9.0 | 0.00 | 0.02 | 0.00 | 1 | 1011.5 |
| 20260903220652 | 67 | 177 | 6.0 | 7.0 | 0.00 | 0.02 | 0.00 | 1 | 1011.4 |
| 20260903215628 | 66 | 215 | 3.0 | 5.0 | 0.00 | 0.02 | 0.00 | 1 | 1011.4 |
| 20260903214624 | 67 | 213 | 3.0 | 8.0 | 0.00 | 0.02 | 0.00 | 1 | 1011.6 |
| 20260903213620 | 66 | 274 | 4.0 | 7.0 | 0.00 | 0.02 | 0.00 | 1 | 1011.6 |
| 20260903212621 | 66 | 208 | 6.0 | 11.0 | 0.00 | 0.02 | 0.00 | 1 | 1012.0 |
| 20260903211652 | 66 | 199 | 4.0 | 6.0 | 0.00 | 0.02 | 0.00 | 1 | 1012.0 |
| 20260903210628 | 66 | 237 | 7.0 | 11.0 | 0.00 | 0.02 | 0.00 | 1 | 1011.7 |
| 20260903205625 | 66 | 214 | 7.0 | 10.0 | 0.00 | 0.02 | 0.00 | 1 | 1012.0 |
| 20260903204641 | 65 | 277 | 6.0 | 10.0 | 0.00 | 0.02 | 0.00 | 1 | 1011.8 |
| 20260903203617 | 65 | 212 | 10.0 | 13.0 | 0.00 | 0.02 | 0.00 | 1 | 1012.1 |
| 20260903202633 | 65 | 217 | 5.0 | 8.0 | 0.00 | 0.02 | 0.00 | 1 | 1012.1 |
| 20260903201629 | 65 | 168 | 3.0 | 4.0 | 0.00 | 0.02 | 0.00 | 1 | 1012.2 |
| 20260903200630 | 65 | 212 | 4.0 | 6.0 | 0.00 | 0.02 | 0.00 | 1 | 1012.4 |
| 20260903195622 | 64 | 173 | 5.0 | 6.0 | 0.00 | 0.02 | 0.00 | 1 | 1012.3 |
| 20260903194617 | 63 | 217 | 3.0 | 5.0 | 0.00 | 0.02 | 0.00 | 1 | 1012.5 |
| 20260903193633 | 64 | 189 | 4.0 | 7.0 | 0.00 | 0.02 | 0.00 | 1 | 1012.5 |
| 20260903192629 | 63 | 228 | 4.0 | 8.0 | 0.00 | 0.02 | 0.00 | 1 | 1012.7 |
| 20260903191625 | 64 | 234 | 4.0 | 6.0 | 0.00 | 0.02 | 0.00 | 1 | 1012.7 |
| 20260903190642 | 64 | 190 | 4.0 | 6.0 | 0.00 | 0.02 | 0.00 | 1 | 1012.9 |
| 20260903185618 | 64 | 184 | 5.0 | 8.0 | 0.00 | 0.02 | 0.00 | 1 | 1013.0 |
| 20260903184634 | 64 | 193 | 3.0 | 5.0 | 0.00 | 0.02 | 0.00 | 1 | 1012.8 |
| 20260903183711 | 64 | 186 | 4.0 | 5.0 | 0.00 | 0.02 | 0.00 | 1 | 1013.0 |
| 20260903182626 | 63 | 208 | 7.0 | 11.0 | 0.00 | 0.02 | 0.00 | 1 | 1012.9 |
| 20260903181642 | 63 | 198 | 5.0 | 8.0 | 0.00 | 0.02 | 0.00 | 1 | 1012.9 |
| 20260903180619 | 63 | 194 | 4.0 | 7.0 | 0.00 | 0.02 | 0.00 | 1 | 1012.9 |
| 20260903175655 | 62 | 203 | 6.0 | 10.0 | 0.00 | 0.02 | 0.00 | 1 | 1012.9 |
| 20260903174631 | 62 | 207 | 4.0 | 6.0 | 0.00 | 0.02 | 0.00 | 1 | 1012.9 |
| 20260903173647 | 62 | 212 | 5.0 | 8.0 | 0.00 | 0.02 | 0.00 | 1 | 1013.0 |
| 20260903172622 | 62 | 207 | 3.0 | 6.0 | 0.00 | 0.02 | 0.00 | 1 | 1012.8 |
| 20260903171621 | 62 | 217 | 10.0 | 11.0 | 0.00 | 0.02 | 0.00 | 1 | 1012.9 |
| 20260903170635 | 62 | 233 | 6.0 | 10.0 | 0.00 | 0.02 | 0.00 | 1 | 1012.9 |
| 20260903165630 | 62 | 225 | 5.0 | 6.0 | 0.00 | 0.02 | 0.00 | 1 | 1013.0 |
| 20260903164626 | 62 | 162 | 3.0 | 4.0 | 0.00 | 0.02 | 0.00 | 1 | 1013.0 |
| 20260903163703 | 59 | 215 | 2.0 | 3.0 | 0.00 | 0.02 | 0.00 | 1 | 1013.0 |
| 20260903162618 | 60 | 191 | 5.0 | 9.0 | 0.00 | 0.02 | 0.00 | 1 | 1013.0 |
| 20260903161635 | 59 | 166 | 4.0 | 6.0 | 0.00 | 0.02 | 0.00 | 1 | 1013.1 |
| 20260903160631 | 59 | 178 | 4.0 | 6.0 | 0.00 | 0.02 | 0.00 | 1 | 1013.0 |
| 20260903155627 | 59 | 228 | 5.0 | 10.0 | 0.00 | 0.02 | 0.00 | 1 | 1012.8 |
| 20260903154623 | 59 | 200 | 4.0 | 6.0 | 0.00 | 0.02 | 0.00 | 1 | 1012.7 |
| 20260903153619 | 58 | 172 | 6.0 | 9.0 | 0.00 | 0.02 | 0.00 | 1 | 1012.7 |
| 20260903152619 | 57 | 183 | 11.0 | 16.0 | 0.00 | 0.02 | 0.00 | 1 | 1012.6 |
| 20260903151633 | 57 | 177 | 7.0 | 11.0 | 0.00 | 0.02 | 0.00 | 1 | 1012.7 |
| 20260903150628 | 57 | 190 | 7.0 | 11.0 | 0.00 | 0.02 | 0.00 | 1 | 1012.5 |
| 20260903145645 | 57 | 185 | 9.0 | 14.0 | 0.00 | 0.02 | 0.00 | 1 | 1012.5 |
| 20260903144621 | 56 | 196 | 8.0 | 11.0 | 0.00 | 0.02 | 0.00 | 1 | 1012.6 |
| 20260903143617 | 56 | 179 | 7.0 | 12.0 | 0.00 | 0.02 | 0.00 | 1 | 1012.4 |
| 20260903142634 | 55 | 184 | 8.0 | 11.0 | 0.00 | 0.02 | 0.00 | 1 | 1012.6 |
| 20260903141630 | 55 | 191 | 7.0 | 12.0 | 0.00 | 0.02 | 0.00 | 1 | 1012.6 |
| 20260903140626 | 54 | 204 | 8.0 | 13.0 | 0.00 | 0.02 | 0.00 | 1 | 1012.3 |
| 20260903135622 | 54 | 211 | 7.0 | 11.0 | 0.00 | 0.02 | 0.00 | 1 | 1012.3 |
| 20260903134617 | 54 | 210 | 5.0 | 9.0 | 0.00 | 0.02 | 0.00 | 1 | 1012.3 |
| 20260903133714 | 54 | 221 | 8.0 | 13.0 | 0.00 | 0.02 | 0.00 | 1 | 1012.2 |
| 20260903132630 | 53 | 194 | 5.0 | 8.0 | 0.00 | 0.02 | 0.00 | 1 | 1012.2 |
| 20260903131625 | 53 | 202 | 5.0 | 9.0 | 0.00 | 0.02 | 0.00 | 1 | 1012.2 |
| 20260903130622 | 53 | 215 | 6.0 | 12.0 | 0.00 | 0.02 | 0.00 | 1 | 1012.0 |
| 20260903125618 | 53 | 207 | 7.0 | 10.0 | 0.00 | 0.02 | 0.00 | 1 | 1012.0 |
| 20260903124633 | 53 | 202 | 7.0 | 13.0 | 0.00 | 0.02 | 0.00 | 1 | 1011.8 |
| 20260903123629 | 53 | 217 | 7.0 | 13.0 | 0.00 | 0.02 | 0.00 | 1 | 1011.8 |
| 20260903122625 | 54 | 194 | 5.0 | 6.0 | 0.00 | 0.02 | 0.00 | 1 | 1011.8 |
| 20260903121622 | 54 | 219 | 5.0 | 8.0 | 0.00 | 0.02 | 0.00 | 1 | 1011.9 |
| 20260903120617 | 54 | 215 | 7.0 | 10.0 | 0.00 | 0.02 | 0.00 | 1 | 1011.9 |
| 20260903115634 | 54 | 204 | 3.0 | 4.0 | 0.00 | 0.02 | 0.00 | 1 | 1011.8 |
| 20260903114630 | 54 | 211 | 5.0 | 8.0 | 0.00 | 0.02 | 0.00 | 1 | 1011.9 |
| 20260903113626 | 54 | 177 | 3.0 | 5.0 | 0.00 | 0.02 | 0.00 | 1 | 1011.8 |
| 20260903112623 | 55 | 187 | 4.0 | 6.0 | 0.00 | 0.02 | 0.00 | 1 | 1011.9 |
| 20260903111640 | 55 | 224 | 7.0 | 9.0 | 0.00 | 0.02 | 0.00 | 1 | 1011.8 |
| 20260903110702 | 55 | 188 | 6.0 | 11.0 | 0.00 | 0.02 | 0.00 | 1 | 1011.3 |
| 20260903105632 | 56 | 179 | 5.0 | 7.0 | 0.00 | 0.02 | 0.00 | 1 | 1011.4 |
| 20260903104629 | 56 | 218 | 6.0 | 11.0 | 0.00 | 0.02 | 0.00 | 1 | 1011.1 |
| 20260903103625 | 56 | 197 | 4.0 | 6.0 | 0.00 | 0.02 | 0.00 | 1 | 1011.0 |
| 20260903102620 | 56 | 160 | 4.0 | 5.0 | 0.00 | 0.02 | 0.00 | 1 | 1011.1 |
| 20260903101617 | 56 | 186 | 5.0 | 7.0 | 0.00 | 0.02 | 0.00 | 1 | 1011.2 |
| 20260903100633 | 56 | 178 | 6.0 | 10.0 | 0.00 | 0.02 | 0.00 | 1 | 1011.2 |
| 20260903095650 | 56 | 206 | 7.0 | 11.0 | 0.00 | 0.02 | 0.00 | 1 | 1011.2 |
| 20260903094625 | 56 | 218 | 4.0 | 5.0 | 0.00 | 0.02 | 0.00 | 1 | 1011.2 |
| 20260903093622 | 57 | 207 | 5.0 | 7.0 | 0.00 | 0.02 | 0.00 | 1 | 1011.1 |
| 20260903092618 | 57 | 205 | 10.0 | 11.0 | 0.00 | 0.02 | 0.00 | 1 | 1011.1 |
| 20260903091634 | 57 | 202 | 7.0 | 10.0 | 0.00 | 0.02 | 0.00 | 1 | 1010.8 |
| 20260903090630 | 57 | 192 | 4.0 | 8.0 | 0.00 | 0.02 | 0.00 | 1 | 1010.9 |
| 20260903085626 | 57 | 206 | 7.0 | 9.0 | 0.00 | 0.02 | 0.00 | 1 | 1010.8 |
| 20260903084623 | 57 | 212 | 7.0 | 11.0 | 0.00 | 0.02 | 0.00 | 1 | 1010.7 |
| 20260903083619 | 57 | 183 | 6.0 | 8.0 | 0.00 | 0.02 | 0.00 | 1 | 1010.9 |
| 20260903082634 | 57 | 211 | 8.0 | 11.0 | 0.00 | 0.02 | 0.00 | 1 | 1010.7 |
| 20260903081651 | 57 | 199 | 7.0 | 12.0 | 0.00 | 0.02 | 0.00 | 1 | 1010.4 |
| 20260903080627 | 57 | 185 | 5.0 | 7.0 | 0.00 | 0.02 | 0.00 | 1 | 1010.4 |